Simultaneous Nadir Overpasses (SNOs) Predictions

Prediction of SNOs between LANDSAT-8 and METOP-B Satellite Orbit:

Table of predicted SNOs for the next 14.0 days since TLE Epoch: 10/3/2020
Index Date (LANDSAT-8) Time (LANDSAT-8) Lat,Lon (LANDSAT-8) SZA (LANDSAT-8 ) Date (METOP-B) Time (METOP-B) Lat,Lon (METOP-B) SZA (METOP-B ) Distance(km) Time Diff (sec)
1 10/04/2020 19:22:28 81.12, -70.65 88.19 10/04/2020 19:22:14 81.12, -70.57 88.20 1.49 14
2 10/04/2020 20:11:54 -81.14, 97.31 91.75 10/04/2020 20:12:54 -81.14, 97.27 91.73 0.81 60
3 10/07/2020 14:56:44 81.11, -4.34 89.27 10/07/2020 14:56:38 81.12, -4.20 89.29 2.53 6
4 10/07/2020 15:46:10 -81.13, 163.65 90.67 10/07/2020 15:47:18 -81.14, 163.68 90.63 0.63 68
5 10/10/2020 09:41:33 -81.10,-105.71 89.69 10/10/2020 09:40:22 -81.10,-105.57 89.71 2.38 71
6 10/10/2020 10:30:58 81.13, 62.32 90.39 10/10/2020 10:31:01 81.12, 62.16 90.36 2.98 3
7 10/13/2020 05:15:49 -81.09, -39.42 88.64 10/13/2020 05:14:47 -81.09, -39.57 88.69 2.68 62
8 10/13/2020 06:05:14 81.11, 128.59 91.43 10/13/2020 06:05:25 81.11, 128.50 91.43 1.64 11
9 10/16/2020 00:50:04 -81.10, 27.21 87.56 10/16/2020 00:49:10 -81.10, 27.15 87.59 1.02 54
